sat.trackr.live / text

‹ back to catalog

STARLINK-30875

NORAD 58224 · 2023-170U

PAYLOAD ACTIVE UNKNOWN

§ Identity

Operator
Country
US
Launch date
2023-11-03
Launch site
AFETR
Launch vehicle
Mass (kg)
RCS (m²)

Purposes: comms

External: N2YO · Heavens-Above · Gunter

§ Orbital elements

Epoch: 2026-05-25T03:19:46.379136Z

Period
94.27 min
Inclination
43.0015°
Eccentricity
0.0001952
Mean motion
15.27582674 rev/d
Perigee alt
481.7 km
Apogee alt
484.4 km
Semi-major
6,861.2 km
B*
1.8119e-4
RAAN
122.2671°
Arg perigee
277.5087°
Mean anomaly
82.5543°
Rev number
14,199

§ Raw data

STARLINK-308751 58224U 23170U   26145.13873124  .00004727  00000+0  18119-3 0  99932 58224  43.0015 122.2671 0001952 277.5087  82.5543 15.27582674141998

JSON: /api/v1/satellites/58224 · /tle

For live sub-satellite position, see the globe view (requires WebGL).

§ Visibility from observer

Set your observer location to see the next 7 days of passes ≥ 10°. The values pass through the URL so the page stays shareable.

No JS? Fill the form by hand. The geolocation button needs JavaScript.